Wind_Speed
68 69 69 69 69 69 70 72 74 76 78 77 73 72 72 73 74 76 77 78 78 79 80 80 80 81 81 81 82 83 83 84 84 84 85 84 84 84 83 83 83 82
69 69 69 69 70 71 72 74 76 76 76 75 72 72 72 73 74 76 77 78 79 79 80 81 81 81 81 82 83 83 84 85 85 86 86 86 86 86 85 85 85 85
69 70 70 71 71 72 74 74 74 72 71 72 72 73 74 75 75 76 77 78 78 78 78 79 79 79 80 80 81 82 82 83 83 84 84 84 85 86 86 87 87 88
71 71 72 72 72 72 73 73 72 72 73 74 75 75 76 76 76 76 76 76 76 77 77 77 77 78 78 78 79 80 80 81 82 83 84 85 86 87 87 88 89 90
72 73 72 72 71 71 71 71 71 72 72 73 73 73 74 74 74 74 75 75 76 76 77 78 78 78 79 79 80 80 81 82 82 83 84 86 87 88 88 89 90 91
71 71 69 68 67 67 67 68 69 69 70 71 71 72 72 73 73 74 74 75 76 77 78 78 79 79 80 80 81 82 82 83 84 84 85 86 87 88 89 90 91 92
68 67 65 65 66 66 67 68 69 69 70 71 72 72 72 73 73 73 74 75 76 76 77 78 79 80 81 82 83 83 84 85 85 86 87 88 88 89 90 91 92 92
66 66 67 68 69 69 70 70 70 70 71 71 71 72 72 73 73 74 75 75 76 77 78 79 80 81 82 83 84 85 85 86 87 87 88 88 89 90 90 91 91 92
67 69 70 70 71 71 71 71 71 71 71 71 72 72 73 74 74 75 75 76 77 78 79 80 81 82 83 84 85 85 86 87 87 88 88 89 90 90 91 92 92 92
69 70 71 71 72 72 72 72 72 72 73 73 73 74 74 75 75 76 76 77 78 79 80 81 82 83 84 85 86 86 87 87 88 89 89 90 91 92 92 93 93 94
70 71 72 72 72 73 73 73 74 74 74 75 75 75 76 76 77 78 78 79 80 81 82 83 84 85 86 87 87 88 88 88 89 89 90 90 91 92 92 93 93 93
70 71 72 73 74 74 74 75 75 75 76 76 76 77 78 78 79 80 81 81 82 83 84 85 86 87 87 88 88 88 88 89 89 89 89 89 89 89 89 89 90 90
71 72 73 74 75 75 75 75 76 76 76 77 78 79 79 80 81 82 82 83 84 85 86 87 87 88 88 88 88 88 88 87 87 87 86 85 85 84 84 84 84 84
72 73 74 74 75 75 75 76 76 77 77 78 79 80 81 82 83 83 84 85 85 86 87 87 87 88 87 87 87 86 85 84 83 82 81 80 79 78 78 78 78 78
72 73 74 74 75 75 76 76 77 78 78 79 80 82 83 83 84 85 85 86 86 86 86 86 86 85 85 84 83 82 81 79 78 77 76 75 74 73 73 73 73 73
72 73 74 75 76 76 77 78 78 79 80 81 82 82 84 84 85 85 85 85 85 85 84 83 82 81 80 79 78 77 76 74 73 72 71 70 70 70 70 70 71 71
72 73 75 76 77 78 79 79 80 80 81 82 83 83 84 85 84 84 84 83 82 81 79 77 76 75 74 73 72 71 71 70 69 68 68 68 69 69 69 69 70 71
74 75 76 77 78 79 80 80 81 81 82 83 83 83 83 83 82 81 80 78 76 75 73 71 70 70 69 68 68 67 68 67 67 67 67 68 68 69 69 70 70 70
75 76 77 78 79 80 81 81 81 82 82 82 82 81 80 78 77 75 73 72 70 69 67 66 66 66 66 65 65 66 66 66 67 67 68 68 69 69 70 71 71 71
76 77 78 79 80 81 81 81 81 81 80 79 78 76 74 73 71 69 67 66 65 64 64 63 64 64 65 65 65 66 66 67 67 68 68 69 70 71 72 72 73 73
78 78 79 80 80 81 80 80 79 78 76 74 73 71 69 67 65 63 62 62 62 62 62 62 63 64 65 65 66 67 68 68 69 70 70 71 72 73 74 74 74 74
79 79 80 80 80 79 78 77 75 74 72 70 67 65 64 62 61 60 60 61 61 62 62 63 64 66 66 67 68 69 70 70 71 71 72 73 74 74 75 75 75 75
79 79 79 78 77 76 74 72 70 69 67 64 63 61 60 60 60 60 61 62 62 63 64 64 65 67 68 69 70 71 72 72 73 73 73 74 74 74 75 74 74 75
78 77 76 75 73 71 69 67 65 63 62 60 60 59 59 60 61 61 62 63 64 65 65 66 67 68 69 70 71 72 73 73 73 73 73 73 73 73 73 72 72 72
76 74 72 69 67 65 63 61 60 59 59 59 59 59 60 61 62 62 63 65 66 66 67 67 68 69 70 70 71 72 72 73 72 72 72 71 71 70 70 69 69 68
70 68 65 63 61 59 58 58 57 58 58 59 59 60 61 62 63 64 64 65 66 67 67 68 68 68 69 69 70 71 71 71 71 70 70 69 68 67 66 65 65 64
Wind_Direction
282 281 281 280 279 278 277 277 277 277 279 281 279 277 275 274 274 274 274 274 274 274 275 275 276 276 277 277 277 278 278 278 279 279 279 279 280 280 280 280 280 280
282 281 280 279 278 277 276 276 277 278 280 282 281 279 278 277 276 276 275 275 276 277 277 277 278 278 278 278 279 279 279 279 279 279 279 280 280 280 281 281 281 281
281 280 279 279 278 277 277 278 278 278 278 278 278 278 278 278 278 278 278 278 279 279 279 279 279 279 280 279 279 279 279 279 279 279 279 279 279 280 280 280 280 280
282 281 281 281 280 280 280 280 279 278 277 277 278 279 279 280 281 281 282 282 282 282 282 282 282 282 281 281 281 280 280 280 279 280 280 280 280 281 281 281 280 280
283 283 283 282 282 282 281 281 281 281 281 281 282 282 283 283 283 284 284 284 284 284 284 283 283 283 283 283 283 282 282 282 281 281 281 281 281 281 281 281 281 281
283 283 283 282 282 282 282 282 282 283 283 283 284 284 284 284 284 284 284 285 285 285 285 285 285 285 285 285 285 284 284 284 283 283 282 282 282 281 281 281 280 280
284 284 284 284 284 284 284 284 284 284 285 285 285 286 286 286 286 286 286 286 286 286 286 286 286 286 286 286 286 285 285 285 285 284 284 283 283 283 282 281 281 280
285 286 287 287 287 287 287 287 287 288 288 288 288 288 288 288 288 288 287 287 287 287 287 286 286 286 286 286 286 286 286 286 286 285 285 285 284 284 283 283 282 281
286 288 289 289 289 289 289 289 289 289 289 288 288 288 288 287 287 287 287 287 287 287 287 287 287 287 287 287 287 287 287 287 286 286 286 286 285 285 285 284 284 283
287 288 288 289 289 289 289 289 289 288 288 288 288 288 287 287 287 287 287 288 288 288 288 288 288 288 288 288 288 288 288 288 287 287 287 286 286 286 285 285 284 284
287 288 288 288 288 288 288 288 288 288 288 288 288 288 288 288 288 288 289 289 289 289 290 290 290 290 289 289 289 289 289 288 288 288 287 287 286 286 285 284 284 283
286 287 287 287 287 287 288 288 288 288 289 289 289 289 289 289 289 289 290 290 290 290 290 290 290 290 290 289 289 289 289 288 288 287 287 286 286 285 284 284 283 282
286 286 286 287 287 288 288 289 289 289 289 290 290 290 290 290 290 290 290 290 290 290 290 290 290 290 290 290 289 289 289 288 288 287 287 286 285 285 284 283 283 282
286 286 287 287 288 288 289 289 289 290 290 290 291 291 291 291 291 291 291 291 291 291 291 291 291 291 290 290 290 289 289 289 288 287 287 286 286 285 284 284 283 283
287 287 288 288 289 289 289 290 290 290 291 291 291 291 291 291 291 291 291 291 292 292 292 292 292 291 291 291 290 290 289 289 288 287 287 286 286 286 285 285 285 284
288 288 289 289 290 290 290 291 291 291 291 291 291 291 291 291 292 292 292 292 292 292 292 292 292 292 291 291 290 290 289 289 288 288 287 287 287 286 286 286 286 286
289 289 290 290 290 291 291 291 291 291 291 291 291 292 292 292 292 292 293 293 292 292 292 292 291 291 290 290 290 289 289 288 288 288 288 287 287 287 287 286 286 286
290 290 290 290 291 291 291 291 291 291 292 292 292 292 292 292 292 292 292 292 292 291 291 290 290 289 289 289 289 289 289 288 289 288 288 288 288 288 287 287 287 287
290 290 291 291 291 291 291 291 292 292 292 292 292 292 292 292 292 291 291 290 290 290 289 289 289 288 288 288 289 289 289 289 289 289 289 289 289 289 288 288 288 288
290 290 290 291 291 291 292 292 292 292 292 292 292 292 291 291 290 290 289 289 288 288 288 288 288 289 289 290 290 290 290 290 290 290 290 290 290 290 290 290 289 289
290 291 291 292 292 292 292 292 292 292 292 292 291 291 290 289 289 288 288 287 288 288 288 289 290 290 291 291 292 292 291 291 291 291 291 291 291 291 291 291 290 290
291 292 292 292 292 292 292 292 292 292 292 291 291 290 289 289 288 288 288 289 289 290 291 292 292 292 293 293 293 292 292 292 292 292 292 292 291 291 291 291 291 290
293 293 293 292 292 292 292 292 293 292 292 291 290 290 290 290 290 291 291 292 292 292 293 293 293 293 293 293 293 293 293 293 292 292 292 292 292 292 292 291 291 290
293 293 293 293 293 293 293 293 293 292 292 292 292 292 292 292 292 292 292 293 293 293 293 293 293 293 294 294 294 294 293 293 293 293 293 293 293 293 292 292 291 291
293 293 294 294 294 294 294 294 293 293 293 293 293 293 292 292 292 292 292 293 293 293 294 294 294 294 294 294 295 294 294 294 294 294 294 294 294 293 293 293 292 292
294 295 295 295 295 295 294 294 294 293 293 293 292 292 292 292 292 292 292 293 293 293 294 294 294 295 295 295 295 295 296 296 296 296 295 295 294 294 294 293 293 293
Height
5713 5712 5710 5708 5706 5705 5703 5701 5699 5697 5696 5694 5693 5692 5690 5689 5688 5687 5685 5684 5683 5682 5680 5679 5677 5676 5674 5673 5671 5670 5668 5666 5665 5663 5662 5661 5660 5659 5659 5658 5657 5656
5705 5703 5701 5700 5698 5696 5694 5692 5691 5689 5687 5685 5684 5682 5681 5680 5679 5677 5676 5675 5674 5673 5672 5670 5669 5667 5665 5664 5662 5660 5658 5656 5655 5653 5651 5650 5648 5647 5646 5645 5644 5643
5697 5695 5693 5691 5689 5687 5685 5684 5682 5680 5679 5677 5675 5674 5673 5671 5670 5668 5667 5666 5665 5663 5662 5660 5659 5657 5656 5654 5652 5650 5648 5647 5645 5643 5641 5640 5639 5637 5636 5635 5633 5632
5688 5685 5683 5682 5680 5678 5676 5675 5673 5672 5670 5669 5667 5665 5664 5662 5660 5659 5657 5656 5654 5652 5651 5649 5648 5646 5645 5643 5642 5640 5638 5637 5635 5633 5631 5629 5628 5627 5625 5624 5623 5622
5678 5676 5674 5672 5671 5669 5667 5666 5664 5663 5661 5659 5657 5656 5654 5652 5651 5649 5647 5646 5644 5642 5640 5638 5636 5635 5633 5631 5630 5628 5627 5625 5624 5623 5621 5619 5617 5616 5614 5613 5611 5610
5670 5667 5665 5663 5662 5660 5659 5657 5656 5654 5652 5650 5648 5646 5644 5643 5641 5639 5637 5636 5634 5632 5629 5627 5625 5623 5621 5619 5617 5616 5614 5613 5612 5610 5609 5607 5605 5603 5602 5600 5599 5598
5660 5658 5656 5655 5653 5652 5650 5648 5647 5645 5643 5640 5638 5636 5634 5632 5630 5629 5627 5625 5623 5621 5619 5616 5614 5612 5610 5608 5605 5603 5602 5600 5599 5597 5595 5593 5592 5589 5587 5586 5585 5584
5651 5649 5647 5645 5643 5641 5640 5638 5636 5634 5632 5630 5628 5626 5624 5622 5620 5618 5616 5614 5612 5610 5608 5606 5603 5601 5598 5596 5594 5592 5590 5588 5586 5584 5582 5580 5578 5576 5573 5571 5570 5569
5642 5640 5638 5636 5633 5631 5629 5628 5626 5624 5622 5620 5618 5616 5615 5612 5610 5608 5606 5604 5601 5599 5597 5595 5592 5590 5587 5585 5583 5580 5578 5576 5574 5572 5569 5567 5565 5562 5560 5557 5555 5554
5634 5631 5629 5626 5624 5622 5620 5618 5617 5615 5613 5611 5609 5607 5605 5602 5600 5598 5595 5593 5591 5588 5586 5583 5580 5578 5575 5572 5571 5569 5567 5564 5562 5559 5557 5555 5552 5549 5547 5544 5542 5540
5625 5622 5619 5617 5615 5613 5611 5609 5607 5605 5603 5601 5599 5596 5594 5591 5589 5587 5584 5581 5579 5576 5574 5571 5568 5565 5563 5560 5558 5556 5555 5552 5550 5548 5545 5542 5540 5537 5534 5532 5529 5528
5616 5613 5610 5608 5605 5603 5601 5599 5597 5595 5593 5590 5588 5585 5582 5580 5577 5575 5572 5570 5567 5564 5562 5559 5556 5553 5551 5549 5547 5544 5542 5540 5538 5535 5533 5530 5527 5524 5522 5519 5517 5515
5606 5603 5601 5598 5596 5593 5591 5589 5587 5585 5582 5579 5577 5574 5571 5568 5566 5563 5561 5558 5556 5553 5550 5547 5544 5541 5539 5536 5534 5532 5530 5528 5525 5523 5520 5518 5514 5512 5509 5506 5504 5502
5597 5594 5591 5588 5586 5584 5581 5579 5577 5574 5572 5569 5565 5562 5559 5557 5554 5552 5549 5546 5543 5541 5538 5535 5531 5528 5526 5524 5522 5520 5517 5515 5513 5510 5508 5505 5502 5499 5496 5494 5492 5490
5587 5584 5581 5578 5576 5573 5571 5569 5567 5564 5561 5558 5555 5551 5548 5545 5543 5540 5537 5534 5531 5528 5525 5522 5519 5515 5513 5511 5509 5507 5505 5503 5501 5498 5496 5493 5490 5487 5485 5483 5481 5479
5578 5574 5571 5568 5566 5563 5561 5558 5556 5553 5551 5548 5544 5541 5537 5534 5531 5528 5525 5522 5519 5516 5513 5510 5506 5503 5500 5499 5496 5494 5493 5491 5489 5487 5484 5482 5480 5477 5475 5473 5470 5468
5568 5565 5561 5558 5555 5553 5550 5548 5545 5543 5540 5537 5533 5530 5526 5523 5520 5517 5514 5510 5507 5504 5502 5499 5495 5492 5490 5488 5486 5483 5482 5480 5479 5477 5474 5472 5470 5468 5465 5463 5461 5458
5558 5555 5552 5548 5545 5542 5540 5537 5535 5532 5529 5526 5522 5518 5515 5512 5508 5506 5503 5500 5497 5494 5492 5489 5486 5483 5480 5478 5477 5474 5472 5470 5469 5467 5465 5462 5460 5458 5455 5453 5451 5449
5548 5545 5542 5538 5535 5532 5529 5527 5524 5521 5517 5514 5511 5507 5504 5501 5498 5496 5493 5490 5488 5485 5483 5481 5477 5474 5471 5469 5468 5465 5463 5461 5459 5457 5454 5452 5450 5447 5445 5442 5440 5438
5538 5535 5532 5529 5525 5522 5519 5516 5512 5509 5506 5503 5500 5497 5494 5491 5488 5486 5484 5481 5479 5477 5475 5472 5468 5465 5463 5461 5459 5456 5454 5451 5450 5447 5445 5442 5440 5437 5434 5431 5429 5426
5528 5525 5522 5519 5515 5511 5508 5505 5501 5498 5495 5492 5490 5487 5484 5482 5480 5478 5475 5473 5470 5468 5466 5464 5460 5456 5453 5452 5449 5447 5444 5442 5440 5437 5435 5433 5430 5426 5423 5421 5417 5414
5517 5515 5511 5508 5505 5501 5498 5494 5491 5488 5485 5483 5480 5478 5475 5473 5471 5469 5467 5465 5462 5459 5457 5455 5451 5447 5444 5442 5440 5437 5434 5432 5430 5428 5425 5422 5419 5416 5413 5410 5406 5402
5506 5504 5501 5497 5494 5491 5487 5484 5481 5478 5476 5473 5471 5469 5467 5465 5463 5460 5458 5456 5453 5450 5449 5446 5442 5438 5435 5433 5430 5427 5424 5422 5420 5418 5415 5412 5408 5405 5402 5399 5395 5390
5496 5492 5490 5486 5483 5481 5477 5475 5472 5469 5467 5465 5463 5461 5459 5456 5454 5452 5449 5447 5444 5442 5439 5437 5434 5430 5426 5424 5420 5417 5414 5412 5409 5407 5404 5401 5397 5394 5391 5387 5383 5380
5485 5482 5479 5476 5473 5471 5468 5466 5463 5461 5459 5457 5455 5453 5451 5448 5446 5444 5442 5439 5436 5433 5430 5428 5425 5422 5418 5414 5411 5406 5403 5401 5398 5396 5393 5390 5387 5384 5381 5377 5373 5370
5476 5473 5470 5467 5465 5462 5460 5458 5456 5453 5451 5449 5447 5445 5443 5440 5438 5436 5434 5431 5428 5425 5422 5418 5416 5413 5409 5405 5401 5397 5393 5390 5387 5385 5382 5379 5377 5373 5371 5368 5364 5361